Weather observations for the past three days for
Clinton Municipal Airport
Metric (Imperial)
Date Time (cdt) Wind (kph) Vis. (km) Weather Sky Cond. Temperature (ºC) Relative Humidity Wind Chill (°C) Heat Index (°C) Pressure Precipitation (cm)
Air Dwpt 6 hour altimeter (cm) sea level (mb) 1 hr 3 hr 6 hr
Max. Min.
03 00:56 S 7 16.09 A Few Clouds FEW100 25.6 23.9 29.4 25 90% 27 76 1012.9
02 23:56 SE 6 16.09 Partly Cloudy SCT110 25 23.9 94% 26 76.02 1013.0
02 21:56 S 6 16.09 Fair CLR 26.7 24.4 87% 30 76 1012.8
02 20:56 S 9 14.48 Fair CLR 27.8 24.4 82% 32 75.97 1012.5
02 19:56 S 9 16.09 Fair CLR 28.3 24.4 79% 33 75.95 1012.0
02 18:56 SW 7 16.09 Fair CLR 29.4 24.4 35 29.4 75% 35 75.95 1012.3
02 17:56 SW 11 16.09 Fair CLR 32.2 25 66% 39 75.95 1012.3
02 16:56 W 13 16.09 A Few Clouds FEW110 33.9 23.3 54% 40 75.97 1012.5
02 15:56 SW 17 16.09 Fair CLR 34.4 22.8 51% 40 75.97 1012.6
02 14:56 W 17 G 30 16.09 Fair CLR 34.4 22.2 49% 39 76 1012.9
02 13:56 SW 19 16.09 Fair CLR 34.4 23.3 52% 40 76.02 1013.2
02 12:56 SW 19 16.09 Fair CLR 33.9 22.8 33.9 22.2 52% 39 76.05 1013.6
02 11:56 SW 15 16.09 Fair CLR 32.2 23.3 59% 37 76.1 1014.1
02 10:56 SW 17 16.09 Fair CLR 30 22.8 65% 34 76.1 1014.1
02 09:56 SW 11 16.09 Fair CLR 28.3 22.8 72% 32 76.1 1014.4
02 08:56 S 7 16.09 A Few Clouds FEW100 26.1 22.2 79% 28 76.12 1014.5
02 07:56 N 11 16.09 Mostly Cloudy BKN100 23.3 21.7 91% 76.17 1015.3
02 06:56 S 7 16.09 Fair CLR 22.2 20.6 23.9 21.7 91% 76.1 1014.0
02 05:56 S 7 16.09 Fair CLR 21.7 20 90% 76.07 1013.9
02 04:56 S 11 16.09 Partly Cloudy SCT100 22.2 20.6 91% 76.07 1014.1
02 03:56 SW 6 16.09 A Few Clouds FEW100 22.8 20.6 87% 76.1 1014.0
02 02:56 S 7 16.09 Fair CLR 22.8 20.6 87% 76.05 1013.6
02 01:56 Calm 16.09 Fair CLR 22.8 21.1 90% 76.05 1013.6
02 00:56 Calm 16.09 Fair CLR 23.3 21.7 29.4 23.3 91% 76.07 1013.7
01 23:56 Calm 16.09 Fair CLR 24.4 21.7 85% 25 76.07 1013.9
01 22:56 S 11 16.09 Fair CLR 25.6 22.8 85% 27 76.07 1013.7
01 21:56 S 11 16.09 Fair CLR 26.1 23.3 85% 28 76.07 1013.8
01 20:56 SE 7 16.09 Fair CLR 26.1 22.8 82% 28 76.07 1013.7
01 19:56 S 11 16.09 Fair CLR 26.7 23.3 82% 29 76.02 1013.2
01 18:56 SW 11 16.09 Fair CLR 29.4 24.4 34.4 29.4 75% 35 76.02 1013.2
01 17:56 SW 15 16.09 Fair CLR 32.2 24.4 63% 39 76.02 1013.4
01 16:56 SW 9 16.09 Fair CLR 33.3 25 62% 41 76.05 1013.5
01 15:56 SW 13 16.09 Fair CLR 33.9 23.9 56% 40 76.05 1013.5
01 14:56 SW 20 16.09 Fair CLR 33.9 24.4 58% 41 76.07 1013.7
01 13:56 SW 15 16.09 Fair CLR 33.9 24.4 58% 41 76.1 1014.0
01 12:56 SW 15 16.09 Fair CLR 33.3 24.4 33.3 22.8 60% 40 76.12 1014.4
01 11:56 S 17 16.09 Fair CLR 31.7 26.1 72% 40 76.15 1014.7
01 10:56 S 9 16.09 Fair CLR 30.6 25.6 75% 38 76.15 1015.0
01 09:56 SW 7 16.09 A Few Clouds FEW120 27.8 25 85% 32 76.17 1015.5
01 08:56 SW 9 16.09 Fair CLR 25.6 23.9 90% 27 76.15 1015.0
01 07:56 SW 6 9.66 Fog/Mist CLR 23.9 23.3 96% 23 76.17 1015.3
01 06:56 SW 7 6.44 Fog/Mist CLR 22.8 22.2 25 21.7 96% 76.15 1014.9
01 05:56 SW 6 11.27 Fair CLR 22.8 22.2 96% 76.1 1014.4
01 04:56 SW 6 14.48 Fair CLR 22.2 22.2 100% 76.07 1014.2
01 03:56 SW 6 16.09 Fair CLR 23.9 22.8 94% 23 76.07 1013.7
01 02:56 NW 7 16.09 Fair CLR 23.9 22.8 94% 23 76.07 1014.0
01 01:56 SW 7 16.09 A Few Clouds FEW095 24.4 23.3 94% 24 76.07 1013.8
01 00:56 SW 9 16.09 Fair CLR 24.4 23.9 28.9 24.4 97% 24 76.07 1014.0
31 23:56 S 6 16.09 A Few Clouds FEW110 25 23.9 94% 26 76.05 1013.5
31 22:56 Calm 16.09 Fair CLR 24.4 23.3 94% 24 76.07 1013.8
31 21:56 S 6 16.09 Fair CLR 25 22.8 88% 26 76.05 1013.8
31 20:56 S 6 16.09 Fair CLR 26.1 23.3 85% 28 76.05 1013.4
31 19:56 S 9 16.09 Fair CLR 26.7 23.9 85% 29 76 1012.8
31 18:56 SW 9 16.09 Fair CLR 28.9 24.4 32.2 28.9 77% 34 76 1012.8
31 17:56 SW 17 16.09 Fair CLR 30 23.3 67% 34 75.97 1012.7
31 16:56 SW 13 16.09 A Few Clouds FEW120 31.1 24.4 68% 37 75.95 1012.5
31 15:56 SW 17 16.09 Fair CLR 32.2 23.9 62% 38 75.97 1012.7
31 14:56 W 11 16.09 Fair CLR 31.7 23.3 61% 37 75.97 1012.6
31 13:56 SW 13 16.09 Fair CLR 31.7 22.8 59% 36 75.97 1012.6
31 12:56 W 13 16.09 Fair CLR 31.1 22.2 31.1 23.9 59% 35 76 1012.9
31 10:56 SW 26 G 31 16.09 Partly Cloudy SCT110 30 21.7 61% 33 76 1013.1
31 09:56 SW 17 16.09 Fair CLR 28.3 21.1 65% 31 75.97 1012.5
31 08:56 SW 22 16.09 Fair CLR 26.1 20 69% 27 75.97 1012.5
31 07:56 SW 20 16.09 Partly Cloudy SCT100 SCT120 25 19.4 71% 26 75.95 1012.4
31 06:56 SW 17 16.09 Overcast OVC100 23.9 18.9 24.4 22.2 74% 25 75.95 1012.3
31 05:56 S 19 G 30 16.09 Overcast BKN095 OVC110 23.9 18.9 74% 25 75.95 1012.4
31 04:56 S 11 16.09 Partly Cloudy SCT100 22.2 18.9 82% 75.97 1012.7
31 03:56 S 11 16.09 Fair CLR 22.8 18.3 76% 75.97 1012.8
31 02:56 S 13 16.09 Fair CLR 23.3 18.9 76% 75.95 1012.4
31 01:56 S 15 16.09 Fair CLR 23.3 19.4 79% 76 1013.1
Date Time (cdt) Wind (kph) Vis. (km) Weather Sky Cond. Air Dwpt Max. Min. Relative Humidity Wind Chill (°C) Heat Index (°C) altimeter (cm) sea level (mb) 1 hr 3 hr 6 hr
6 hour
Temperature (ºC) Pressure Precipitation (cm)